| time (UTC) | temp C | wind direction | speed KPH | gust KPH | rain 1hr cm | rain 24hr cm | rain mn cm | humidity % | barometer mb |
| 20260506202332 | 18 | 260 | 0.0 | 8.0 | 0.00 | 0.64 | 0.64 | 92 | 1023.7 |
| 20260506202203 | 18 | 258 | 0.0 | 4.8 | 0.00 | 0.64 | 0.64 | 92 | 1007.0 |
| 20260506201828 | 18 | 302 | 0.0 | 0.0 | 0.00 | 0.64 | 0.64 | 92 | 1023.7 |
| 20260506201704 | 18 | 257 | 0.0 | 1.6 | 0.00 | 0.64 | 0.64 | 92 | 1007.1 |
| 20260506201326 | 18 | 243 | 0.0 | 0.0 | 0.00 | 0.64 | 0.64 | 92 | 1023.7 |
| 20260506201205 | 18 | 243 | 0.0 | 4.8 | 0.00 | 0.64 | 0.64 | 92 | 1007.3 |
| 20260506200822 | 18 | 252 | 0.0 | 4.8 | 0.00 | 0.64 | 0.64 | 92 | 1023.6 |
| 20260506200703 | 18 | 237 | 1.6 | 8.0 | 0.00 | 0.64 | 0.64 | 92 | 1007.1 |
| 20260506200318 | 18 | 249 | 0.0 | 8.0 | 0.00 | 0.64 | 0.64 | 91 | 1023.7 |
| 20260506195814 | 18 | 234 | 0.0 | 0.0 | 0.00 | 0.64 | 0.64 | 93 | 1023.8 |
| 20260506195704 | 17 | 234 | 0.0 | 8.0 | 0.00 | 0.64 | 0.64 | 92 | 1007.2 |
| 20260506195312 | 17 | 249 | 0.0 | 4.8 | 0.00 | 0.64 | 0.64 | 92 | 1023.8 |
| 20260506194809 | 17 | 278 | 0.0 | 4.8 | 0.00 | 0.64 | 0.64 | 93 | 1023.9 |
| 20260506194305 | 17 | 256 | 0.0 | 8.0 | 0.00 | 0.64 | 0.64 | 93 | 1024.0 |
| 20260506194203 | 17 | 256 | 1.6 | 8.0 | 0.00 | 0.64 | 0.64 | 92 | 1007.5 |
| 20260506193803 | 17 | 270 | 0.0 | 3.2 | 0.00 | 0.64 | 0.64 | 93 | 1023.8 |
| 20260506193704 | 17 | 255 | 0.0 | 8.0 | 0.00 | 0.64 | 0.64 | 93 | 1007.4 |
| 20260506193259 | 17 | 229 | 4.8 | 4.8 | 0.00 | 0.64 | 0.64 | 93 | 1024.0 |
| 20260506193204 | 17 | 254 | 0.0 | 8.0 | 0.00 | 0.64 | 0.64 | 94 | 1007.4 |
| 20260506192755 | 17 | 271 | 0.0 | 8.0 | 0.00 | 0.64 | 0.64 | 93 | 1023.8 |
| 20260506192703 | 17 | 226 | 3.2 | 11.3 | 0.00 | 0.64 | 0.64 | 93 | 1007.4 |
| 20260506192253 | 17 | 206 | 4.8 | 8.0 | 0.00 | 0.64 | 0.64 | 94 | 1024.0 |
| 20260506192204 | 17 | 271 | 0.0 | 1.6 | 0.00 | 0.64 | 0.64 | 94 | 1007.5 |
| 20260506191749 | 17 | 250 | 0.0 | 0.0 | 0.00 | 0.64 | 0.64 | 95 | 1023.9 |
| 20260506191245 | 17 | 282 | 0.0 | 4.8 | 0.00 | 0.64 | 0.64 | 96 | 1024.1 |
| 20260506191204 | 16 | 238 | 0.0 | 4.8 | 0.03 | 0.64 | 0.64 | 95 | 1007.5 |
| 20260506190744 | 16 | 255 | 0.0 | 4.8 | 0.00 | 0.64 | 0.64 | 96 | 1024.5 |
| 20260506190703 | 16 | 251 | 0.0 | 4.8 | 0.03 | 0.64 | 0.64 | 97 | 1007.7 |
| 20260506190240 | 16 | 218 | 0.0 | 0.0 | 0.00 | 0.64 | 0.64 | 97 | 1024.5 |
| 20260506190204 | 16 | 271 | 0.0 | 0.0 | 0.03 | 0.64 | 0.64 | 97 | 1007.6 |
| 20260506185737 | 16 | 253 | 0.0 | 0.0 | 0.00 | 0.64 | 0.64 | 97 | 1024.3 |
| 20260506185704 | 16 | 249 | 0.0 | 4.8 | 0.03 | 0.64 | 0.64 | 97 | 1007.9 |
| 20260506185233 | 16 | 240 | 0.0 | 3.2 | 0.00 | 0.64 | 0.64 | 97 | 1024.6 |
| 20260506184731 | 16 | 206 | 1.6 | 11.3 | 0.00 | 0.64 | 0.64 | 98 | 1024.5 |
| 20260506184705 | 16 | 239 | 0.0 | 4.8 | 0.03 | 0.64 | 0.64 | 98 | 1007.8 |
| 20260506184228 | 16 | 231 | 0.0 | 4.8 | 0.00 | 0.64 | 0.64 | 98 | 1024.8 |
| 20260506183725 | 16 | 261 | 1.6 | 3.2 | 0.00 | 0.64 | 0.64 | 98 | 1024.6 |
| 20260506183704 | 16 | 272 | 0.0 | 1.6 | 0.03 | 0.64 | 0.64 | 99 | 1008.0 |
| 20260506183220 | 15 | 243 | 0.0 | 0.0 | 0.00 | 0.64 | 0.64 | 99 | 1024.7 |
| 20260506183204 | 15 | 240 | 0.0 | 8.0 | 0.03 | 0.64 | 0.64 | 99 | 1008.0 |
| 20260506182718 | 15 | 232 | 0.0 | 3.2 | 0.00 | 0.64 | 0.64 | 99 | 1024.7 |
| 20260506182703 | 15 | 253 | 0.0 | 1.6 | 0.03 | 0.64 | 0.64 | 99 | 1008.1 |
| 20260506182215 | 15 | 230 | 0.0 | 0.0 | 0.18 | 0.64 | 0.64 | 99 | 1024.9 |
| 20260506181713 | 15 | 241 | 0.0 | 4.8 | 0.18 | 0.64 | 0.64 | 99 | 1025.0 |
| 20260506181704 | 15 | 207 | 0.0 | 8.0 | 0.03 | 0.64 | 0.64 | 99 | 1008.3 |
| 20260506181210 | 15 | 235 | 0.0 | 8.0 | 0.00 | 0.61 | 0.61 | 99 | 1025.0 |
| 20260506181203 | 15 | 241 | 0.0 | 8.0 | 0.00 | 0.61 | 0.61 | 99 | 1008.3 |
| 20260506180707 | 15 | 242 | 0.0 | 8.0 | 0.00 | 0.61 | 0.61 | 99 | 1024.9 |
| 20260506180703 | 15 | 236 | 1.6 | 8.0 | 0.00 | 0.61 | 0.61 | 99 | 1008.2 |
| 20260506180204 | 15 | 223 | 1.6 | 8.0 | 0.00 | 0.61 | 0.61 | 99 | 1008.3 |
| 20260506175659 | 15 | 249 | 0.0 | 0.0 | 0.00 | 0.61 | 0.61 | 99 | 1024.8 |
| 20260506175156 | 15 | 230 | 0.0 | 3.2 | 0.00 | 0.61 | 0.61 | 99 | 1024.9 |
| 20260506174704 | 15 | 256 | 0.0 | 4.8 | 0.00 | 0.61 | 0.61 | 99 | 1008.1 |
| 20260506174654 | 15 | 248 | 0.0 | 0.0 | 0.00 | 0.61 | 0.61 | 99 | 1024.8 |
| 20260506174204 | 15 | 225 | 1.6 | 4.8 | 0.00 | 0.61 | 0.61 | 99 | 1008.2 |
| 20260506174151 | 15 | 250 | 0.0 | 4.8 | 0.00 | 0.61 | 0.61 | 99 | 1025.0 |
| 20260506173703 | 15 | 241 | 0.0 | 12.9 | 0.00 | 0.61 | 0.61 | 99 | 1008.2 |
| 20260506173649 | 15 | 249 | 0.0 | 0.0 | 0.00 | 0.61 | 0.61 | 99 | 1025.0 |
| 20260506173145 | 15 | 221 | 0.0 | 12.9 | 0.00 | 0.61 | 0.61 | 99 | 1024.8 |
| 20260506172642 | 15 | 197 | 0.0 | 3.2 | 0.00 | 0.61 | 0.61 | 99 | 1024.9 |
| 20260506172204 | 15 | 222 | 0.0 | 4.8 | 0.00 | 0.61 | 0.61 | 99 | 1008.1 |
| 20260506172139 | 15 | 245 | 0.0 | 3.2 | 0.00 | 0.61 | 0.61 | 99 | 1024.9 |
| 20260506171703 | 15 | 270 | 1.6 | 4.8 | 0.00 | 0.61 | 0.61 | 99 | 1008.1 |
| 20260506171636 | 15 | 267 | 0.0 | 0.0 | 0.00 | 0.61 | 0.61 | 99 | 1024.7 |
| 20260506171205 | 15 | 230 | 1.6 | 8.0 | 0.00 | 0.61 | 0.61 | 99 | 1008.2 |
| 20260506171134 | 15 | 209 | 0.0 | 3.2 | 0.00 | 0.61 | 0.61 | 99 | 1024.8 |
| 20260506170703 | 15 | 253 | 0.0 | 1.6 | 0.03 | 0.61 | 0.61 | 99 | 1008.2 |
| 20260506170631 | 15 | 200 | 0.0 | 3.2 | 0.00 | 0.61 | 0.61 | 99 | 1025.0 |
| 20260506170204 | 15 | 224 | 0.0 | 11.3 | 0.03 | 0.61 | 0.61 | 99 | 1008.5 |
| 20260506170123 | 15 | 232 | 0.0 | 3.2 | 0.00 | 0.61 | 0.61 | 99 | 1025.2 |
| 20260506165621 | 15 | 233 | 1.6 | 16.1 | 0.00 | 0.61 | 0.61 | 99 | 1025.0 |
| 20260506165117 | 15 | 222 | 0.0 | 8.0 | 0.00 | 0.61 | 0.61 | 99 | 1024.9 |
| 20260506164704 | 15 | 206 | 0.0 | 14.5 | 0.10 | 0.61 | 0.61 | 99 | 1008.3 |
| 20260506164614 | 15 | 189 | 0.0 | 8.0 | 0.00 | 0.61 | 0.61 | 99 | 1024.9 |
| 20260506164204 | 15 | 202 | 3.2 | 11.3 | 0.13 | 0.61 | 0.61 | 99 | 1008.2 |
| 20260506164112 | 15 | 202 | 6.4 | 8.0 | 0.00 | 0.61 | 0.61 | 99 | 1024.8 |
| 20260506163608 | 15 | 189 | 1.6 | 3.2 | 0.00 | 0.61 | 0.61 | 99 | 1024.9 |
| 20260506163203 | 15 | 200 | 1.6 | 4.8 | 0.18 | 0.61 | 0.61 | 99 | 1008.2 |
| 20260506163103 | 15 | 197 | 1.6 | 4.8 | 0.00 | 0.61 | 0.61 | 99 | 1024.9 |
| 20260506162703 | 15 | 204 | 0.0 | 8.0 | 0.20 | 0.61 | 0.61 | 99 | 1008.4 |
| 20260506162559 | 15 | 203 | 0.0 | 0.0 | 0.00 | 0.61 | 0.61 | 99 | 1025.1 |
| 20260506162204 | 15 | 194 | 1.6 | 8.0 | 0.23 | 0.61 | 0.61 | 99 | 1008.3 |
| 20260506162051 | 15 | 180 | 1.6 | 4.8 | 0.00 | 0.61 | 0.61 | 99 | 1025.0 |
| 20260506161704 | 15 | 218 | 1.6 | 8.0 | 0.23 | 0.61 | 0.61 | 99 | 1008.5 |
| 20260506161548 | 15 | 215 | 0.0 | 3.2 | 0.13 | 0.61 | 0.61 | 99 | 1025.2 |
| 20260506161040 | 15 | 197 | 0.0 | 3.2 | 0.30 | 0.61 | 0.61 | 99 | 1024.9 |
| 20260506160704 | 15 | 194 | 1.6 | 4.8 | 0.25 | 0.58 | 0.58 | 99 | 1008.3 |
| 20260506160537 | 15 | 177 | 1.6 | 4.8 | 0.18 | 0.58 | 0.58 | 99 | 1025.0 |
| 20260506160205 | 15 | 202 | 1.6 | 12.9 | 0.30 | 0.58 | 0.58 | 99 | 1008.6 |
| 20260506160034 | 15 | 195 | 1.6 | 4.8 | 0.13 | 0.56 | 0.56 | 99 | 1025.2 |
| 20260506155704 | 15 | 195 | 0.0 | 12.9 | 0.30 | 0.56 | 0.56 | 99 | 1008.9 |
| 20260506155533 | 15 | 226 | 0.0 | 12.9 | 0.30 | 0.56 | 0.56 | 99 | 1025.5 |
| 20260506155206 | 15 | 198 | 1.6 | 4.8 | 0.33 | 0.56 | 0.56 | 99 | 1009.2 |
| 20260506154704 | 15 | 216 | 0.0 | 0.0 | 0.30 | 0.51 | 0.51 | 99 | 1009.2 |
| 20260506153709 | 15 | 229 | 0.0 | 0.0 | 0.30 | 0.46 | 0.46 | 99 | 1026.5 |
| 20260506153705 | 15 | 226 | 0.0 | 0.0 | 0.30 | 0.46 | 0.46 | 99 | 1009.7 |
| 20260506153207 | 15 | 264 | 0.0 | 0.0 | 0.30 | 0.43 | 0.43 | 99 | 1026.1 |
| 20260506153204 | 15 | 223 | 0.0 | 1.6 | 0.28 | 0.43 | 0.43 | 99 | 1009.6 |
| 20260506152705 | 15 | 231 | 0.0 | 1.6 | 0.28 | 0.41 | 0.41 | 99 | 1009.5 |
| 20260506152203 | 15 | 232 | 0.0 | 1.6 | 0.25 | 0.38 | 0.38 | 99 | 1009.5 |
| 20260506152201 | 15 | 235 | 0.0 | 3.2 | 0.18 | 0.38 | 0.38 | 99 | 1026.4 |
| 20260506151703 | 15 | 219 | 0.0 | 0.0 | 0.28 | 0.38 | 0.38 | 99 | 1009.4 |
| 20260506151701 | 15 | 227 | 0.0 | 0.0 | 0.36 | 0.38 | 0.38 | 99 | 1026.1 |
| 20260506151204 | 15 | 258 | 0.0 | 0.0 | 0.28 | 0.36 | 0.36 | 99 | 1009.6 |
| 20260506151156 | 15 | 259 | 0.0 | 0.0 | 0.30 | 0.36 | 0.36 | 99 | 1026.3 |
| 20260506150704 | 15 | 239 | 0.0 | 0.0 | 0.28 | 0.33 | 0.33 | 99 | 1009.4 |
| 20260506150653 | 15 | 255 | 0.0 | 0.0 | 0.43 | 0.33 | 0.33 | 99 | 1026.2 |
| 20260506150150 | 15 | 211 | 0.0 | 0.0 | 0.30 | 0.28 | 0.28 | 99 | 1026.0 |
| 20260506145704 | 15 | 244 | 0.0 | 1.6 | 0.25 | 0.25 | 0.25 | 99 | 1009.3 |
| 20260506145647 | 15 | 224 | 0.0 | 0.0 | 0.30 | 0.25 | 0.25 | 99 | 1026.1 |
| 20260506145203 | 15 | 260 | 0.0 | 1.6 | 0.23 | 0.23 | 0.23 | 98 | 1009.3 |
| 20260506145143 | 15 | 265 | 0.0 | 0.0 | 0.30 | 0.23 | 0.23 | 98 | 1025.9 |
| 20260506144641 | 15 | 266 | 0.0 | 0.0 | 0.30 | 0.20 | 0.20 | 98 | 1026.2 |
| 20260506144138 | 15 | 221 | 0.0 | 0.0 | 0.13 | 0.18 | 0.18 | 98 | 1026.1 |
| 20260506143705 | 15 | 262 | 0.0 | 0.0 | 0.15 | 0.15 | 0.15 | 98 | 1009.3 |
| 20260506143635 | 15 | 237 | 0.0 | 0.0 | 0.18 | 0.15 | 0.15 | 98 | 1026.0 |
| 20260506143204 | 15 | 250 | 0.0 | 0.0 | 0.15 | 0.15 | 0.15 | 97 | 1009.4 |
| 20260506143133 | 15 | 247 | 0.0 | 0.0 | 0.18 | 0.15 | 0.15 | 97 | 1026.0 |
| 20260506142704 | 15 | 237 | 0.0 | 0.0 | 0.13 | 0.13 | 0.13 | 97 | 1009.1 |
| 20260506142632 | 15 | 263 | 0.0 | 0.0 | 0.13 | 0.13 | 0.13 | 97 | 1025.9 |
| 20260506142204 | 15 | 247 | 0.0 | 4.8 | 0.13 | 0.13 | 0.13 | 96 | 1009.3 |
| 20260506142129 | 15 | 229 | 0.0 | 0.0 | 0.30 | 0.13 | 0.13 | 96 | 1026.0 |
| 20260506141703 | 16 | 223 | 0.0 | 0.0 | 0.10 | 0.10 | 0.10 | 95 | 1009.4 |
| 20260506141626 | 16 | 252 | 0.0 | 0.0 | 0.36 | 0.10 | 0.10 | 96 | 1026.2 |
| 20260506141125 | 16 | 252 | 0.0 | 0.0 | 0.30 | 0.08 | 0.08 | 94 | 1025.9 |
| 20260506140622 | 16 | 266 | 0.0 | 3.2 | 0.30 | 0.05 | 0.05 | 92 | 1026.1 |
| 20260506140204 | 16 | 217 | 0.0 | 8.0 | 0.03 | 0.03 | 0.03 | 91 | 1009.3 |
| 20260506140119 | 16 | 213 | 0.0 | 0.0 | 0.18 | 0.03 | 0.03 | 91 | 1025.9 |
| 20260506135706 | 16 | 188 | 1.6 | 8.0 | 0.00 | 0.00 | 0.00 | 90 | 1009.1 |
| 20260506135616 | 16 | 180 | 3.2 | 8.0 | 0.00 | 0.00 | 0.00 | 90 | 1025.8 |
| 20260506135112 | 16 | 197 | 1.6 | 4.8 | 0.00 | 0.00 | 0.00 | 90 | 1025.9 |
| 20260506134705 | 17 | 215 | 0.0 | 8.0 | 0.00 | 0.00 | 0.00 | 89 | 1009.3 |
| 20260506134609 | 17 | 213 | 0.0 | 4.8 | 0.00 | 0.00 | 0.00 | 89 | 1026.0 |
| 20260506134204 | 17 | 197 | 0.0 | 12.9 | 0.00 | 0.00 | 0.00 | 89 | 1009.3 |
| 20260506134104 | 17 | 206 | 0.0 | 3.2 | 0.00 | 0.00 | 0.00 | 89 | 1026.1 |
| 20260506133705 | 17 | 233 | 1.6 | 11.3 | 0.00 | 0.00 | 0.00 | 88 | 1009.2 |
| 20260506133602 | 17 | 240 | 0.0 | 11.3 | 0.00 | 0.00 | 0.00 | 88 | 1025.9 |
| 20260506133203 | 17 | 237 | 0.0 | 4.8 | 0.00 | 0.00 | 0.00 | 89 | 1009.1 |
| 20260506133059 | 17 | 229 | 0.0 | 0.0 | 0.00 | 0.00 | 0.00 | 89 | 1025.8 |
| 20260506132556 | 17 | 219 | 1.6 | 4.8 | 0.00 | 0.00 | 0.00 | 88 | 1025.9 |
| 20260506132053 | 17 | 242 | 0.0 | 4.8 | 0.00 | 0.00 | 0.00 | 88 | 1026.1 |
| 20260506131703 | 17 | 249 | 1.6 | 11.3 | 0.00 | 0.00 | 0.00 | 88 | 1009.5 |
| 20260506131550 | 17 | 247 | 1.6 | 8.0 | 0.00 | 0.00 | 0.00 | 88 | 1026.2 |
| 20260506131203 | 17 | 242 | 0.0 | 11.3 | 0.00 | 0.00 | 0.00 | 88 | 1009.5 |
| 20260506131047 | 17 | 252 | 0.0 | 8.0 | 0.00 | 0.00 | 0.00 | 88 | 1026.2 |
| 20260506130543 | 17 | 229 | 0.0 | 3.2 | 0.00 | 0.00 | 0.00 | 87 | 1026.2 |
| 20260506130203 | 17 | 231 | 1.6 | 20.9 | 0.00 | 0.00 | 0.00 | 87 | 1009.5 |
| 20260506130041 | 17 | 231 | 0.0 | 11.3 | 0.00 | 0.00 | 0.00 | 87 | 1026.2 |
| 20260506125703 | 17 | 264 | 3.2 | 20.9 | 0.00 | 0.00 | 0.00 | 86 | 1009.5 |
| 20260506125539 | 17 | 269 | 11.3 | 20.9 | 0.00 | 0.00 | 0.00 | 86 | 1026.1 |
| 20260506125204 | 17 | 266 | 3.2 | 19.3 | 0.00 | 0.00 | 0.00 | 85 | 1009.7 |
| 20260506125037 | 17 | 280 | 0.0 | 12.9 | 0.00 | 0.00 | 0.00 | 85 | 1026.5 |
| 20260506124704 | 17 | 219 | 4.8 | 14.5 | 0.00 | 0.00 | 0.00 | 84 | 1009.6 |
| 20260506124534 | 17 | 216 | 8.0 | 16.1 | 0.00 | 0.00 | 0.00 | 84 | 1026.5 |
| 20260506124203 | 17 | 209 | 4.8 | 12.9 | 0.00 | 0.00 | 0.00 | 84 | 1009.6 |
| 20260506124032 | 17 | 212 | 3.2 | 12.9 | 0.00 | 0.00 | 0.00 | 84 | 1026.2 |
| 20260506123704 | 17 | 227 | 1.6 | 8.0 | 0.00 | 0.00 | 0.00 | 83 | 1009.6 |
| 20260506123530 | 17 | 230 | 3.2 | 8.0 | 0.00 | 0.00 | 0.00 | 83 | 1026.3 |
| 20260506123203 | 17 | 212 | 3.2 | 8.0 | 0.00 | 0.00 | 0.00 | 84 | 1009.5 |
| 20260506123028 | 17 | 205 | 4.8 | 8.0 | 0.00 | 0.00 | 0.00 | 84 | 1026.2 |
| 20260506122703 | 17 | 193 | 0.0 | 8.0 | 0.00 | 0.00 | 0.00 | 83 | 1009.4 |
| 20260506122524 | 17 | 242 | 0.0 | 4.8 | 0.00 | 0.00 | 0.00 | 83 | 1026.1 |
| 20260506122022 | 17 | 145 | 1.6 | 16.1 | 0.00 | 0.00 | 0.00 | 83 | 1026.2 |
| 20260506121703 | 17 | 223 | 3.2 | 11.3 | 0.00 | 0.00 | 0.00 | 83 | 1009.3 |
| 20260506121520 | 17 | 157 | 0.0 | 0.0 | 0.00 | 0.00 | 0.00 | 83 | 1026.3 |
| 20260506121015 | 17 | 196 | 1.6 | 8.0 | 0.00 | 0.00 | 0.00 | 83 | 1026.0 |
| 20260506120703 | 17 | 247 | 1.6 | 14.5 | 0.00 | 0.00 | 0.00 | 82 | 1009.3 |
| 20260506120514 | 17 | 203 | 1.6 | 11.3 | 0.00 | 0.00 | 0.00 | 83 | 1025.8 |
| 20260506120203 | 17 | 219 | 3.2 | 14.5 | 0.00 | 0.00 | 0.00 | 82 | 1009.2 |
| 20260506120011 | 17 | 181 | 3.2 | 11.3 | 0.00 | 0.00 | 0.00 | 82 | 1025.8 |
| 20260506115703 | 17 | 240 | 3.2 | 19.3 | 0.00 | 0.00 | 0.00 | 82 | 1009.1 |
| 20260506115509 | 18 | 251 | 0.0 | 17.7 | 0.00 | 0.00 | 0.00 | 82 | 1025.7 |
| 20260506115007 | 18 | 223 | 4.8 | 12.9 | 0.00 | 0.00 | 0.00 | 82 | 1025.7 |
| 20260506114504 | 18 | 242 | 8.0 | 12.9 | 0.00 | 0.00 | 0.00 | 82 | 1025.6 |
| 20260506114203 | 17 | 267 | 4.8 | 12.9 | 0.00 | 0.00 | 0.00 | 82 | 1008.9 |
| 20260506114003 | 17 | 206 | 6.4 | 11.3 | 0.00 | 0.00 | 0.00 | 82 | 1025.8 |
| 20260506113704 | 17 | 211 | 1.6 | 11.3 | 0.00 | 0.00 | 0.00 | 83 | 1008.9 |
| 20260506113500 | 17 | 241 | 0.0 | 3.2 | 0.00 | 0.00 | 0.00 | 83 | 1025.5 |
| 20260506113204 | 17 | 205 | 1.6 | 12.9 | 0.00 | 0.00 | 0.00 | 83 | 1008.9 |
| 20260506112956 | 17 | 255 | 0.0 | 8.0 | 0.00 | 0.00 | 0.00 | 83 | 1025.7 |
| 20260506112704 | 17 | 211 | 6.4 | 12.9 | 0.00 | 0.00 | 0.00 | 83 | 1009.0 |
| 20260506112454 | 17 | 269 | 8.0 | 11.3 | 0.00 | 0.00 | 0.00 | 83 | 1025.6 |
| 20260506111951 | 17 | 237 | 1.6 | 3.2 | 0.00 | 0.00 | 0.00 | 83 | 1025.5 |
| 20260506111449 | 17 | 259 | 0.0 | 4.8 | 0.00 | 0.00 | 0.00 | 83 | 1025.5 |
| 20260506111203 | 17 | 226 | 4.8 | 11.3 | 0.00 | 0.00 | 0.00 | 83 | 1008.9 |
| 20260506110945 | 17 | 211 | 4.8 | 8.0 | 0.00 | 0.00 | 0.00 | 83 | 1025.6 |
| 20260506110443 | 17 | 183 | 4.8 | 11.3 | 0.00 | 0.00 | 0.00 | 83 | 1025.7 |
| 20260506110204 | 17 | 235 | 1.6 | 8.0 | 0.00 | 0.00 | 0.00 | 83 | 1009.1 |
| 20260506105939 | 17 | 252 | 4.8 | 8.0 | 0.00 | 0.00 | 0.00 | 83 | 1025.6 |
| 20260506105436 | 17 | 205 | 1.6 | 8.0 | 0.00 | 0.00 | 0.00 | 83 | 1025.7 |
| 20260506104933 | 17 | 251 | 0.0 | 3.2 | 0.00 | 0.00 | 0.00 | 83 | 1025.6 |
| 20260506104703 | 17 | 234 | 1.6 | 4.8 | 0.00 | 0.00 | 0.00 | 83 | 1008.9 |
| 20260506104431 | 17 | 240 | 1.6 | 4.8 | 0.00 | 0.00 | 0.00 | 82 | 1025.5 |
| 20260506104205 | 17 | 234 | 1.6 | 11.3 | 0.00 | 0.00 | 0.00 | 82 | 1008.9 |
| 20260506103930 | 17 | 232 | 0.0 | 3.2 | 0.00 | 0.00 | 0.00 | 82 | 1025.4 |
| 20260506103704 | 17 | 234 | 0.0 | 11.3 | 0.00 | 0.00 | 0.00 | 83 | 1008.8 |
| 20260506103427 | 17 | 223 | 0.0 | 0.0 | 0.00 | 0.00 | 0.00 | 82 | 1025.3 |
| 20260506103203 | 17 | 211 | 1.6 | 8.0 | 0.00 | 0.00 | 0.00 | 82 | 1008.8 |
| 20260506102924 | 17 | 209 | 0.0 | 8.0 | 0.00 | 0.00 | 0.00 | 82 | 1025.4 |
| 20260506102704 | 17 | 220 | 3.2 | 11.3 | 0.00 | 0.00 | 0.00 | 82 | 1008.7 |
| 20260506102422 | 17 | 192 | 4.8 | 11.3 | 0.00 | 0.00 | 0.00 | 82 | 1025.4 |
| 20260506102203 | 17 | 195 | 1.6 | 11.3 | 0.00 | 0.00 | 0.00 | 82 | 1008.7 |
| 20260506101918 | 17 | 195 | 0.0 | 4.8 | 0.00 | 0.00 | 0.00 | 82 | 1025.4 |
| 20260506101703 | 17 | 237 | 1.6 | 11.3 | 0.00 | 0.00 | 0.00 | 82 | 1008.8 |
| 20260506101414 | 17 | 249 | 0.0 | 8.0 | 0.00 | 0.00 | 0.00 | 82 | 1025.3 |
| 20260506101203 | 17 | 221 | 1.6 | 8.0 | 0.00 | 0.00 | 0.00 | 82 | 1008.7 |
| 20260506100912 | 17 | 225 | 0.0 | 8.0 | 0.00 | 0.00 | 0.00 | 82 | 1025.3 |
| 20260506100703 | 17 | 237 | 0.0 | 11.3 | 0.00 | 0.00 | 0.00 | 82 | 1008.7 |
| 20260506100410 | 17 | 247 | 0.0 | 8.0 | 0.00 | 0.00 | 0.00 | 82 | 1025.2 |
| 20260506100204 | 17 | 222 | 1.6 | 12.9 | 0.00 | 0.00 | 0.00 | 82 | 1008.6 |
| 20260506095908 | 17 | 227 | 0.0 | 12.9 | 0.00 | 0.00 | 0.00 | 81 | 1025.4 |
| 20260506095406 | 18 | 242 | 0.0 | 0.0 | 0.00 | 0.00 | 0.00 | 81 | 1025.4 |
| 20260506095205 | 18 | 198 | 4.8 | 20.9 | 0.00 | 0.00 | 0.00 | 80 | 1008.7 |
| 20260506094902 | 18 | 171 | 11.3 | 20.9 | 0.00 | 0.00 | 0.00 | 80 | 1025.4 |
| 20260506094704 | 18 | 232 | 4.8 | 11.3 | 0.00 | 0.00 | 0.00 | 80 | 1008.8 |
| 20260506094401 | 18 | 231 | 0.0 | 4.8 | 0.00 | 0.00 | 0.00 | 81 | 1025.5 |
| 20260506093858 | 18 | 204 | 1.6 | 8.0 | 0.00 | 0.00 | 0.00 | 80 | 1025.6 |
| 20260506093356 | 18 | 247 | 0.0 | 8.0 | 0.00 | 0.00 | 0.00 | 80 | 1025.4 |
| 20260506092853 | 18 | 259 | 0.0 | 4.8 | 0.00 | 0.00 | 0.00 | 80 | 1025.5 |
| 20260506092351 | 18 | 232 | 0.0 | 16.1 | 0.00 | 0.00 | 0.00 | 80 | 1025.6 |
| 20260506092204 | 18 | 227 | 3.2 | 11.3 | 0.00 | 0.00 | 0.00 | 80 | 1008.9 |
| 20260506091847 | 18 | 236 | 1.6 | 8.0 | 0.00 | 0.00 | 0.00 | 80 | 1025.4 |
| 20260506091704 | 18 | 206 | 3.2 | 12.9 | 0.00 | 0.00 | 0.00 | 80 | 1008.9 |
| 20260506091345 | 18 | 184 | 8.0 | 12.9 | 0.00 | 0.00 | 0.00 | 80 | 1025.3 |
| 20260506091204 | 18 | 240 | 3.2 | 12.9 | 0.00 | 0.00 | 0.00 | 80 | 1008.8 |
| 20260506090837 | 18 | 205 | 8.0 | 11.3 | 0.00 | 0.00 | 0.00 | 80 | 1025.4 |
| 20260506090705 | 18 | 210 | 3.2 | 12.9 | 0.00 | 0.00 | 0.00 | 81 | 1008.8 |
| 20260506090335 | 18 | 219 | 1.6 | 8.0 | 0.00 | 0.00 | 0.00 | 81 | 1025.3 |
| 20260506085831 | 18 | 227 | 0.0 | 0.0 | 0.00 | 0.00 | 0.00 | 81 | 1025.4 |
| 20260506085704 | 18 | 251 | 0.0 | 8.0 | 0.00 | 0.00 | 0.00 | 81 | 1008.6 |
| 20260506085327 | 18 | 260 | 1.6 | 8.0 | 0.00 | 0.00 | 0.00 | 81 | 1025.6 |
| 20260506085204 | 18 | 243 | 0.0 | 12.9 | 0.00 | 0.00 | 0.00 | 80 | 1008.8 |
| 20260506084824 | 18 | 239 | 0.0 | 4.8 | 0.00 | 0.00 | 0.00 | 80 | 1025.5 |
| 20260506084320 | 18 | 253 | 0.0 | 4.8 | 0.00 | 0.00 | 0.00 | 80 | 1025.4 |
| 20260506084203 | 18 | 199 | 4.8 | 11.3 | 0.00 | 0.00 | 0.00 | 80 | 1008.9 |
| 20260506083817 | 18 | 233 | 1.6 | 4.8 | 0.00 | 0.00 | 0.00 | 80 | 1025.5 |
| 20260506083704 | 18 | 245 | 0.0 | 12.9 | 0.00 | 0.00 | 0.00 | 80 | 1008.9 |
| 20260506083315 | 18 | 167 | 3.2 | 11.3 | 0.00 | 0.00 | 0.00 | 80 | 1025.6 |
| 20260506083203 | 18 | 181 | 4.8 | 12.9 | 0.00 | 0.00 | 0.00 | 80 | 1008.9 |
| 20260506082812 | 18 | 203 | 4.8 | 8.0 | 0.00 | 0.00 | 0.00 | 80 | 1025.7 |
| 20260506082704 | 18 | 231 | 1.6 | 11.3 | 0.00 | 0.00 | 0.00 | 79 | 1008.9 |
| 20260506082308 | 18 | 210 | 3.2 | 11.3 | 0.00 | 0.00 | 0.00 | 79 | 1025.6 |
| 20260506082203 | 18 | 224 | 3.2 | 12.9 | 0.00 | 0.00 | 0.00 | 79 | 1009.0 |
| 20260506081805 | 18 | 233 | 4.8 | 8.0 | 0.00 | 0.00 | 0.00 | 79 | 1025.7 |
| 20260506081704 | 18 | 166 | 3.2 | 11.3 | 0.00 | 0.00 | 0.00 | 79 | 1008.9 |
| 20260506081303 | 18 | 257 | 0.0 | 11.3 | 0.00 | 0.00 | 0.00 | 79 | 1025.7 |
| 20260506081203 | 18 | 257 | 1.6 | 11.3 | 0.00 | 0.00 | 0.00 | 79 | 1009.0 |
| 20260506080800 | 18 | 248 | 0.0 | 3.2 | 0.00 | 0.00 | 0.00 | 79 | 1025.7 |
| 20260506080256 | 18 | 245 | 0.0 | 4.8 | 0.00 | 0.00 | 0.00 | 78 | 1025.6 |
| 20260506080204 | 18 | 239 | 0.0 | 11.3 | 0.00 | 0.00 | 0.00 | 78 | 1009.0 |
| 20260506073240 | 18 | 214 | 8.0 | 11.3 | 0.00 | 0.00 | 0.00 | 77 | 1025.6 |
| 20260506073204 | 18 | 228 | 3.2 | 11.3 | 0.00 | 0.00 | 0.00 | 77 | 1009.0 |
| 20260506072737 | 18 | 241 | 0.0 | 8.0 | 0.00 | 0.00 | 0.00 | 77 | 1025.8 |
| 20260506072705 | 18 | 241 | 1.6 | 8.0 | 0.00 | 0.00 | 0.00 | 77 | 1009.2 |
| 20260506072235 | 18 | 205 | 4.8 | 8.0 | 0.00 | 0.00 | 0.00 | 77 | 1025.7 |
| 20260506072205 | 18 | 228 | 1.6 | 4.8 | 0.00 | 0.00 | 0.00 | 77 | 1009.2 |
| 20260506071733 | 18 | 219 | 0.0 | 4.8 | 0.00 | 0.00 | 0.00 | 76 | 1025.8 |
| 20260506071704 | 18 | 204 | 3.2 | 8.0 | 0.00 | 0.00 | 0.00 | 77 | 1009.3 |
| 20260506071230 | 18 | 230 | 1.6 | 8.0 | 0.00 | 0.00 | 0.00 | 76 | 1025.7 |
| 20260506071204 | 18 | 223 | 3.2 | 8.0 | 0.00 | 0.00 | 0.00 | 76 | 1009.2 |
| 20260506070727 | 18 | 248 | 0.0 | 4.8 | 0.00 | 0.00 | 0.00 | 76 | 1025.9 |
| 20260506070704 | 18 | 226 | 1.6 | 12.9 | 0.00 | 0.00 | 0.00 | 76 | 1009.3 |
| 20260506070224 | 18 | 216 | 3.2 | 4.8 | 0.00 | 0.00 | 0.00 | 76 | 1025.9 |
| 20260506062204 | 18 | 227 | 1.6 | 8.0 | 0.00 | 0.00 | 0.00 | 72 | 1009.6 |
| 20260506062201 | 18 | 242 | 0.0 | 4.8 | 0.00 | 0.00 | 0.00 | 73 | 1026.4 |
| 20260506061704 | 18 | 204 | 3.2 | 8.0 | 0.00 | 0.00 | 0.00 | 72 | 1009.8 |
| 20260506061656 | 18 | 216 | 1.6 | 8.0 | 0.00 | 0.00 | 0.00 | 72 | 1026.4 |
| 20260506061204 | 18 | 239 | 0.0 | 4.8 | 0.00 | 0.00 | 0.00 | 72 | 1009.7 |
| 20260506061154 | 18 | 224 | 0.0 | 3.2 | 0.00 | 0.00 | 0.00 | 72 | 1026.4 |
| 20260506060705 | 18 | 234 | 0.0 | 4.8 | 0.00 | 0.00 | 0.00 | 72 | 1009.7 |
| 20260506060653 | 18 | 220 | 0.0 | 4.8 | 0.00 | 0.00 | 0.00 | 72 | 1026.3 |
| 20260506060204 | 18 | 247 | 1.6 | 8.0 | 0.00 | 0.00 | 0.00 | 71 | 1009.8 |
| 20260506060149 | 18 | 266 | 0.0 | 0.0 | 0.00 | 0.00 | 0.00 | 72 | 1026.5 |
| 20260506051121 | 18 | 238 | 0.0 | 0.0 | 0.00 | 0.00 | 0.00 | 70 | 1026.8 |
| 20260506050620 | 18 | 241 | 0.0 | 0.0 | 0.00 | 0.00 | 0.00 | 69 | 1026.8 |
| 20260506050116 | 18 | 246 | 0.0 | 0.0 | 0.00 | 0.00 | 0.00 | 70 | 1026.7 |
| 20260506045110 | 19 | 246 | 0.0 | 0.0 | 0.00 | 0.00 | 0.00 | 68 | 1026.9 |
| 20260506044704 | 19 | 249 | 0.0 | 1.6 | 0.00 | 0.00 | 0.00 | 69 | 1010.4 |
| 20260506044608 | 19 | 249 | 0.0 | 0.0 | 0.00 | 0.00 | 0.00 | 69 | 1027.1 |
| 20260506044204 | 19 | 223 | 0.0 | 8.0 | 0.00 | 0.00 | 0.00 | 69 | 1010.2 |
| 20260506044104 | 19 | 220 | 0.0 | 0.0 | 0.00 | 0.00 | 0.00 | 69 | 1026.9 |
| 20260506043705 | 19 | 254 | 0.0 | 1.6 | 0.00 | 0.00 | 0.00 | 68 | 1010.4 |
| 20260506043601 | 19 | 254 | 0.0 | 0.0 | 0.00 | 0.00 | 0.00 | 68 | 1027.3 |
| 20260506043204 | 19 | 254 | 0.0 | 4.8 | 0.00 | 0.00 | 0.00 | 68 | 1010.2 |
| 20260506043100 | 19 | 257 | 0.0 | 0.0 | 0.00 | 0.00 | 0.00 | 68 | 1026.8 |
| 20260506042703 | 19 | 257 | 0.0 | 1.6 | 0.00 | 0.00 | 0.00 | 69 | 1010.2 |
| 20260506042558 | 19 | 257 | 0.0 | 0.0 | 0.00 | 0.00 | 0.00 | 69 | 1026.8 |
| 20260506042203 | 19 | 255 | 0.0 | 1.6 | 0.00 | 0.00 | 0.00 | 69 | 1010.2 |
| 20260506042056 | 19 | 254 | 0.0 | 0.0 | 0.00 | 0.00 | 0.00 | 69 | 1026.9 |
| 20260506041703 | 19 | 257 | 0.0 | 1.6 | 0.00 | 0.00 | 0.00 | 68 | 1010.3 |
| 20260506041555 | 19 | 257 | 0.0 | 0.0 | 0.00 | 0.00 | 0.00 | 68 | 1027.1 |
| 20260506041204 | 19 | 251 | 0.0 | 1.6 | 0.00 | 0.00 | 0.00 | 68 | 1010.1 |
| 20260506041051 | 19 | 239 | 0.0 | 3.2 | 0.00 | 0.00 | 0.00 | 68 | 1026.7 |
| 20260506040707 | 19 | 261 | 0.0 | 4.8 | 0.00 | 0.00 | 0.00 | 69 | 1010.2 |
| 20260506040549 | 19 | 261 | 0.0 | 0.0 | 0.00 | 0.00 | 0.00 | 69 | 1026.9 |
| 20260506040203 | 19 | 244 | 0.0 | 0.0 | 0.00 | 0.00 | 0.00 | 68 | 1010.0 |
| 20260506040045 | 19 | 244 | 0.0 | 0.0 | 0.00 | 0.00 | 0.00 | 68 | 1026.8 |
| 20260506035702 | 19 | 244 | 0.0 | 0.0 | 0.00 | 0.00 | 0.00 | 68 | 1010.2 |
| 20260506035542 | 19 | 244 | 0.0 | 0.0 | 0.00 | 0.00 | 0.00 | 68 | 1026.8 |
| 20260506035203 | 19 | 244 | 0.0 | 4.8 | 0.00 | 0.00 | 0.00 | 67 | 1010.3 |
| 20260506035038 | 20 | 244 | 0.0 | 0.0 | 0.00 | 0.00 | 0.00 | 67 | 1027.0 |
| 20260506034703 | 19 | 237 | 0.0 | 4.8 | 0.00 | 0.00 | 0.00 | 66 | 1010.0 |
| 20260506034536 | 19 | 233 | 0.0 | 4.8 | 0.00 | 0.00 | 0.00 | 66 | 1026.6 |
| 20260506034203 | 19 | 243 | 0.0 | 12.9 | 0.00 | 0.00 | 0.00 | 67 | 1010.0 |
| 20260506034032 | 19 | 250 | 0.0 | 0.0 | 0.00 | 0.00 | 0.00 | 67 | 1026.6 |
| 20260506033704 | 19 | 260 | 1.6 | 12.9 | 0.00 | 0.00 | 0.00 | 67 | 1010.2 |
| 20260506033530 | 19 | 261 | 1.6 | 11.3 | 0.00 | 0.00 | 0.00 | 67 | 1026.8 |
| 20260506033205 | 19 | 247 | 1.6 | 11.3 | 0.00 | 0.00 | 0.00 | 67 | 1010.0 |
| 20260506033027 | 20 | 266 | 0.0 | 4.8 | 0.00 | 0.00 | 0.00 | 67 | 1026.6 |
| 20260506032703 | 20 | 248 | 0.0 | 4.8 | 0.00 | 0.00 | 0.00 | 67 | 1010.0 |
| 20260506032524 | 20 | 261 | 0.0 | 4.8 | 0.00 | 0.00 | 0.00 | 67 | 1026.7 |
| 20260506032203 | 20 | 208 | 1.6 | 4.8 | 0.00 | 0.00 | 0.00 | 66 | 1010.0 |
| 20260506032021 | 20 | 259 | 0.0 | 4.8 | 0.00 | 0.00 | 0.00 | 66 | 1026.6 |
| 20260506031704 | 20 | 249 | 0.0 | 4.8 | 0.00 | 0.00 | 0.00 | 66 | 1010.0 |
| 20260506031519 | 20 | 245 | 0.0 | 4.8 | 0.00 | 0.00 | 0.00 | 66 | 1026.7 |
| 20260506031205 | 20 | 245 | 0.0 | 1.6 | 0.00 | 0.00 | 0.00 | 66 | 1009.9 |
| 20260506031015 | 20 | 245 | 0.0 | 0.0 | 0.00 | 0.00 | 0.00 | 66 | 1026.8 |
| 20260506030514 | 20 | 247 | 0.0 | 4.8 | 0.00 | 0.00 | 0.00 | 65 | 1026.8 |
| 20260506030203 | 19 | 202 | 1.6 | 8.0 | 0.00 | 0.00 | 0.00 | 66 | 1010.0 |
| 20260506030010 | 20 | 248 | 0.0 | 0.0 | 0.00 | 0.00 | 0.00 | 67 | 1026.6 |
| 20260506025703 | 20 | 235 | 0.0 | 8.0 | 0.00 | 0.00 | 0.00 | 66 | 1010.1 |
| 20260506025507 | 20 | 235 | 0.0 | 0.0 | 0.00 | 0.00 | 0.00 | 65 | 1026.8 |
| 20260506025203 | 20 | 249 | 0.0 | 8.0 | 0.00 | 0.00 | 0.00 | 65 | 1010.0 |
| 20260506025004 | 20 | 229 | 0.0 | 0.0 | 0.00 | 0.00 | 0.00 | 66 | 1026.7 |
| 20260506024704 | 20 | 252 | 0.0 | 1.6 | 0.00 | 0.00 | 0.00 | 65 | 1009.9 |
| 20260506024500 | 20 | 240 | 0.0 | 3.2 | 0.00 | 0.00 | 0.00 | 65 | 1026.7 |
| 20260506024203 | 20 | 241 | 0.0 | 0.0 | 0.00 | 0.00 | 0.00 | 65 | 1010.1 |
| 20260506023956 | 20 | 256 | 0.0 | 0.0 | 0.00 | 0.00 | 0.00 | 65 | 1026.8 |
| 20260506023703 | 20 | 248 | 1.6 | 4.8 | 0.00 | 0.00 | 0.00 | 65 | 1010.0 |
| 20260506023453 | 20 | 223 | 1.6 | 4.8 | 0.00 | 0.00 | 0.00 | 64 | 1026.8 |
| 20260506023204 | 20 | 242 | 0.0 | 1.6 | 0.00 | 0.00 | 0.00 | 64 | 1010.1 |
| 20260506022950 | 20 | 271 | 0.0 | 0.0 | 0.00 | 0.00 | 0.00 | 65 | 1026.8 |
| 20260506022704 | 20 | 249 | 0.0 | 4.8 | 0.00 | 0.00 | 0.00 | 63 | 1009.9 |
| 20260506022448 | 20 | 244 | 0.0 | 0.0 | 0.00 | 0.00 | 0.00 | 64 | 1026.9 |
| 20260506022204 | 20 | 233 | 1.6 | 8.0 | 0.00 | 0.00 | 0.00 | 63 | 1010.2 |
| 20260506021945 | 20 | 211 | 1.6 | 8.0 | 0.00 | 0.00 | 0.00 | 63 | 1026.8 |
| 20260506021703 | 20 | 257 | 0.0 | 4.8 | 0.00 | 0.00 | 0.00 | 63 | 1010.2 |
| 20260506021443 | 20 | 230 | 0.0 | 3.2 | 0.00 | 0.00 | 0.00 | 63 | 1026.6 |
| 20260506021204 | 20 | 248 | 1.6 | 4.8 | 0.00 | 0.00 | 0.00 | 62 | 1010.1 |
| 20260506020939 | 20 | 240 | 0.0 | 0.0 | 0.00 | 0.00 | 0.00 | 63 | 1026.7 |
| 20260506020703 | 20 | 248 | 0.0 | 4.8 | 0.00 | 0.00 | 0.00 | 62 | 1010.1 |
| 20260506020437 | 20 | 193 | 0.0 | 3.2 | 0.00 | 0.00 | 0.00 | 62 | 1026.8 |
| 20260506020204 | 20 | 232 | 0.0 | 0.0 | 0.00 | 0.00 | 0.00 | 63 | 1010.1 |
| 20260506015934 | 20 | 233 | 0.0 | 0.0 | 0.00 | 0.00 | 0.00 | 63 | 1026.8 |
| 20260506015704 | 20 | 233 | 0.0 | 0.0 | 0.00 | 0.00 | 0.00 | 61 | 1010.0 |
| 20260506015432 | 20 | 231 | 0.0 | 0.0 | 0.00 | 0.00 | 0.00 | 61 | 1026.5 |
| 20260506015204 | 20 | 250 | 0.0 | 4.8 | 0.00 | 0.00 | 0.00 | 60 | 1010.0 |
| 20260506014928 | 20 | 254 | 0.0 | 0.0 | 0.00 | 0.00 | 0.00 | 61 | 1026.6 |
| 20260506014426 | 21 | 254 | 0.0 | 0.0 | 0.00 | 0.00 | 0.00 | 60 | 1026.5 |
| 20260506013922 | 21 | 255 | 0.0 | 0.0 | 0.00 | 0.00 | 0.00 | 60 | 1026.6 |
| 20260506013703 | 21 | 245 | 3.2 | 8.0 | 0.00 | 0.00 | 0.00 | 58 | 1009.8 |
| 20260506013420 | 21 | 229 | 0.0 | 3.2 | 0.00 | 0.00 | 0.00 | 59 | 1026.4 |
| 20260506013203 | 21 | 256 | 0.0 | 4.8 | 0.00 | 0.00 | 0.00 | 59 | 1009.8 |
| 20260506012916 | 21 | 195 | 1.6 | 4.8 | 0.00 | 0.00 | 0.00 | 59 | 1026.6 |
| 20260506012704 | 21 | 250 | 0.0 | 8.0 | 0.00 | 0.00 | 0.00 | 58 | 1009.9 |
| 20260506012413 | 21 | 212 | 0.0 | 3.2 | 0.00 | 0.00 | 0.00 | 58 | 1026.4 |
| 20260506012205 | 21 | 214 | 3.2 | 8.0 | 0.00 | 0.00 | 0.00 | 58 | 1009.6 |
| 20260506011910 | 21 | 225 | 0.0 | 8.0 | 0.00 | 0.00 | 0.00 | 57 | 1026.4 |
| 20260506011703 | 21 | 251 | 1.6 | 4.8 | 0.00 | 0.00 | 0.00 | 58 | 1009.7 |
| 20260506011407 | 21 | 245 | 0.0 | 0.0 | 0.00 | 0.00 | 0.00 | 57 | 1026.3 |
| 20260506011203 | 21 | 253 | 0.0 | 4.8 | 0.00 | 0.00 | 0.00 | 58 | 1009.6 |
| 20260506010904 | 21 | 243 | 0.0 | 3.2 | 0.00 | 0.00 | 0.00 | 56 | 1026.3 |
| 20260506010703 | 21 | 226 | 1.6 | 4.8 | 0.00 | 0.00 | 0.00 | 56 | 1009.5 |
| 20260506010402 | 21 | 232 | 0.0 | 0.0 | 0.00 | 0.00 | 0.00 | 58 | 1026.1 |
| 20260506010203 | 22 | 231 | 0.0 | 1.6 | 0.00 | 0.00 | 0.00 | 56 | 1009.5 |
| 20260506005858 | 22 | 236 | 0.0 | 3.2 | 0.00 | 0.00 | 0.00 | 55 | 1026.2 |
| 20260506005703 | 22 | 239 | 0.0 | 8.0 | 0.00 | 0.00 | 0.00 | 54 | 1009.4 |
| 20260506005356 | 22 | 258 | 0.0 | 8.0 | 0.00 | 0.00 | 0.00 | 55 | 1026.1 |
| 20260506005205 | 22 | 227 | 3.2 | 8.0 | 0.00 | 0.00 | 0.00 | 55 | 1009.4 |
| 20260506004851 | 22 | 251 | 0.0 | 3.2 | 0.00 | 0.00 | 0.00 | 56 | 1025.9 |
| 20260506004703 | 22 | 235 | 0.0 | 8.0 | 0.00 | 0.00 | 0.00 | 55 | 1009.3 |
| 20260506004350 | 22 | 242 | 0.0 | 0.0 | 0.00 | 0.00 | 0.00 | 54 | 1026.0 |
| 20260506004203 | 22 | 220 | 3.2 | 8.0 | 0.00 | 0.00 | 0.00 | 54 | 1009.2 |
| 20260506003845 | 22 | 233 | 0.0 | 0.0 | 0.00 | 0.00 | 0.00 | 53 | 1026.1 |
| 20260506003705 | 22 | 234 | 0.0 | 1.6 | 0.00 | 0.00 | 0.00 | 54 | 1009.3 |
| 20260506003341 | 22 | 253 | 0.0 | 3.2 | 0.00 | 0.00 | 0.00 | 54 | 1025.9 |
| 20260506003203 | 22 | 260 | 0.0 | 8.0 | 0.00 | 0.00 | 0.00 | 55 | 1009.3 |
| 20260506002838 | 22 | 239 | 0.0 | 3.2 | 0.00 | 0.00 | 0.00 | 54 | 1025.9 |
| 20260506002703 | 22 | 252 | 0.0 | 8.0 | 0.00 | 0.00 | 0.00 | 54 | 1009.2 |
| 20260506002334 | 22 | 263 | 0.0 | 0.0 | 0.00 | 0.00 | 0.00 | 54 | 1026.0 |
| 20260506002203 | 22 | 263 | 0.0 | 0.0 | 0.00 | 0.00 | 0.00 | 54 | 1009.1 |
| 20260506001830 | 22 | 263 | 0.0 | 0.0 | 0.00 | 0.00 | 0.00 | 53 | 1025.8 |
| 20260506001703 | 22 | 271 | 0.0 | 0.0 | 0.00 | 0.00 | 0.00 | 53 | 1009.0 |
| 20260506001327 | 22 | 280 | 0.0 | 0.0 | 0.00 | 0.00 | 0.00 | 52 | 1026.0 |
| 20260506001204 | 22 | 292 | 0.0 | 1.6 | 0.00 | 0.00 | 0.00 | 52 | 1009.0 |
| 20260506000824 | 23 | 264 | 0.0 | 0.0 | 0.00 | 0.00 | 0.00 | 51 | 1025.7 |
| 20260506000323 | 23 | 235 | 0.0 | 0.0 | 0.00 | 0.00 | 0.00 | 50 | 1025.9 |
| 20260506000205 | 23 | 229 | 0.0 | 8.0 | 0.00 | 0.00 | 0.00 | 50 | 1008.9 |
| 20260505235819 | 23 | 242 | 0.0 | 8.0 | 0.00 | 0.00 | 0.00 | 49 | 1025.5 |
| 20260505235704 | 23 | 228 | 3.2 | 8.0 | 0.00 | 0.00 | 0.00 | 49 | 1008.9 |
| 20260505235316 | 23 | 259 | 0.0 | 4.8 | 0.00 | 0.00 | 0.00 | 50 | 1025.9 |
| 20260505235203 | 23 | 212 | 1.6 | 11.3 | 0.00 | 0.00 | 0.00 | 49 | 1009.0 |
| 20260505234813 | 23 | 234 | 3.2 | 11.3 | 0.00 | 0.00 | 0.00 | 48 | 1025.4 |
| 20260505234311 | 23 | 214 | 8.0 | 12.9 | 0.00 | 0.00 | 0.00 | 48 | 1025.5 |
| 20260505233807 | 23 | 223 | 3.2 | 8.0 | 0.00 | 0.00 | 0.00 | 48 | 1025.4 |
| 20260505233703 | 23 | 231 | 0.0 | 12.9 | 0.00 | 0.00 | 0.00 | 48 | 1008.8 |
| 20260505233305 | 23 | 246 | 1.6 | 4.8 | 0.00 | 0.00 | 0.00 | 49 | 1025.4 |
| 20260505233203 | 23 | 230 | 1.6 | 11.3 | 0.00 | 0.00 | 0.00 | 48 | 1008.7 |
| 20260505232802 | 23 | 226 | 1.6 | 8.0 | 0.00 | 0.00 | 0.00 | 48 | 1025.4 |
| 20260505232704 | 23 | 217 | 4.8 | 12.9 | 0.00 | 0.00 | 0.00 | 48 | 1008.6 |
| 20260505232300 | 23 | 270 | 0.0 | 8.0 | 0.00 | 0.00 | 0.00 | 49 | 1025.7 |
| 20260505232204 | 23 | 189 | 4.8 | 12.9 | 0.00 | 0.00 | 0.00 | 47 | 1008.8 |
| 20260505231756 | 23 | 217 | 8.0 | 12.9 | 0.00 | 0.00 | 0.00 | 48 | 1025.4 |
| 20260505231704 | 24 | 261 | 0.0 | 11.3 | 0.00 | 0.00 | 0.00 | 49 | 1008.8 |
| 20260505231255 | 24 | 247 | 6.4 | 11.3 | 0.00 | 0.00 | 0.00 | 47 | 1025.2 |
| 20260505231204 | 24 | 236 | 3.2 | 12.9 | 0.00 | 0.00 | 0.00 | 48 | 1008.7 |
| 20260505230753 | 24 | 205 | 3.2 | 12.9 | 0.00 | 0.00 | 0.00 | 48 | 1025.4 |
| 20260505230704 | 24 | 263 | 0.0 | 20.9 | 0.00 | 0.00 | 0.00 | 48 | 1008.8 |
| 20260505230249 | 24 | 196 | 8.0 | 12.9 | 0.00 | 0.00 | 0.00 | 47 | 1025.5 |
| 20260505230204 | 24 | 258 | 0.0 | 20.9 | 0.00 | 0.00 | 0.00 | 47 | 1008.9 |
| 20260505225746 | 24 | 238 | 4.8 | 12.9 | 0.00 | 0.00 | 0.00 | 47 | 1025.4 |
| 20260505225243 | 24 | 234 | 4.8 | 8.0 | 0.00 | 0.00 | 0.00 | 47 | 1025.5 |
| 20260505224738 | 25 | 217 | 6.4 | 11.3 | 0.00 | 0.00 | 0.00 | 47 | 1025.3 |
| 20260505224704 | 24 | 208 | 3.2 | 19.3 | 0.00 | 0.00 | 0.00 | 47 | 1008.8 |
| 20260505224236 | 25 | 235 | 3.2 | 11.3 | 0.00 | 0.00 | 0.00 | 48 | 1025.4 |
| 20260505224204 | 24 | 252 | 8.0 | 19.3 | 0.00 | 0.00 | 0.00 | 47 | 1008.6 |
| 20260505223733 | 25 | 246 | 3.2 | 8.0 | 0.00 | 0.00 | 0.00 | 49 | 1025.3 |
| 20260505223703 | 24 | 203 | 4.8 | 14.5 | 0.00 | 0.00 | 0.00 | 47 | 1008.5 |
| 20260505223229 | 25 | 214 | 6.4 | 16.1 | 0.00 | 0.00 | 0.00 | 47 | 1025.3 |
| 20260505222725 | 25 | 243 | 1.6 | 3.2 | 0.00 | 0.00 | 0.00 | 48 | 1025.3 |
| 20260505222703 | 25 | 243 | 1.6 | 14.5 | 0.00 | 0.00 | 0.00 | 47 | 1008.8 |
| 20260505222221 | 25 | 260 | 4.8 | 16.1 | 0.00 | 0.00 | 0.00 | 47 | 1025.6 |
| 20260505222204 | 25 | 218 | 4.8 | 14.5 | 0.00 | 0.00 | 0.00 | 46 | 1008.8 |
| 20260505221719 | 25 | 207 | 6.4 | 16.1 | 0.00 | 0.00 | 0.00 | 47 | 1025.5 |
| 20260505221704 | 25 | 247 | 1.6 | 14.5 | 0.00 | 0.00 | 0.00 | 47 | 1008.7 |
| 20260505221215 | 25 | 232 | 8.0 | 11.3 | 0.00 | 0.00 | 0.00 | 46 | 1025.2 |
| 20260505221203 | 25 | 232 | 3.2 | 11.3 | 0.00 | 0.00 | 0.00 | 48 | 1008.6 |
| 20260505220712 | 25 | 202 | 1.6 | 11.3 | 0.00 | 0.00 | 0.00 | 47 | 1025.4 |
| 20260505220210 | 25 | 212 | 6.4 | 8.0 | 0.00 | 0.00 | 0.00 | 46 | 1025.4 |
| 20260505220204 | 25 | 213 | 1.6 | 14.5 | 0.00 | 0.00 | 0.00 | 47 | 1008.6 |
| 20260505215708 | 25 | 206 | 4.8 | 11.3 | 0.00 | 0.00 | 0.00 | 45 | 1025.3 |
| 20260505215704 | 25 | 206 | 4.8 | 12.9 | 0.00 | 0.00 | 0.00 | 45 | 1008.4 |
| 20260505215206 | 25 | 215 | 1.6 | 12.9 | 0.00 | 0.00 | 0.00 | 45 | 1025.2 |
| 20260505215204 | 25 | 218 | 4.8 | 14.5 | 0.00 | 0.00 | 0.00 | 45 | 1008.5 |
| 20260505214703 | 25 | 268 | 1.6 | 16.1 | 0.00 | 0.00 | 0.00 | 46 | 1025.1 |
| 20260505214203 | 25 | 221 | 4.8 | 12.9 | 0.00 | 0.00 | 0.00 | 45 | 1008.5 |
| 20260505214200 | 25 | 198 | 4.8 | 12.9 | 0.00 | 0.00 | 0.00 | 45 | 1025.0 |
| 20260505213705 | 25 | 226 | 4.8 | 19.3 | 0.00 | 0.00 | 0.00 | 45 | 1008.3 |
| 20260505213658 | 25 | 232 | 3.2 | 11.3 | 0.00 | 0.00 | 0.00 | 46 | 1025.1 |
| 20260505213204 | 25 | 246 | 3.2 | 19.3 | 0.00 | 0.00 | 0.00 | 45 | 1008.3 |
| 20260505213155 | 25 | 220 | 6.4 | 17.7 | 0.00 | 0.00 | 0.00 | 45 | 1025.1 |
| 20260505212703 | 25 | 249 | 4.8 | 19.3 | 0.00 | 0.00 | 0.00 | 45 | 1008.4 |
| 20260505212650 | 25 | 218 | 3.2 | 8.0 | 0.00 | 0.00 | 0.00 | 45 | 1025.2 |
| 20260505212148 | 25 | 272 | 1.6 | 17.7 | 0.00 | 0.00 | 0.00 | 46 | 1024.8 |
| 20260505211704 | 25 | 193 | 4.8 | 19.3 | 0.00 | 0.00 | 0.00 | 45 | 1008.2 |
| 20260505211645 | 25 | 128 | 4.8 | 16.1 | 0.00 | 0.00 | 0.00 | 45 | 1025.0 |
| 20260505211204 | 25 | 204 | 9.7 | 19.3 | 0.00 | 0.00 | 0.00 | 46 | 1008.3 |
| 20260505211142 | 25 | 270 | 6.4 | 17.7 | 0.00 | 0.00 | 0.00 | 45 | 1025.1 |
| 20260505210704 | 25 | 215 | 3.2 | 12.9 | 0.00 | 0.00 | 0.00 | 46 | 1008.5 |
| 20260505210639 | 25 | 213 | 8.0 | 12.9 | 0.00 | 0.00 | 0.00 | 45 | 1025.1 |
| 20260505210203 | 25 | 203 | 4.8 | 12.9 | 0.00 | 0.00 | 0.00 | 45 | 1008.4 |
| 20260505210135 | 25 | 233 | 1.6 | 12.9 | 0.00 | 0.00 | 0.00 | 48 | 1025.1 |
| 20260505205633 | 25 | 189 | 0.0 | 0.0 | 0.00 | 0.00 | 0.00 | 46 | 1025.3 |
| 20260505205204 | 25 | 239 | 3.2 | 22.5 | 0.00 | 0.00 | 0.00 | 45 | 1008.5 |
| 20260505205131 | 25 | 220 | 4.8 | 8.0 | 0.00 | 0.00 | 0.00 | 46 | 1025.2 |
| 20260505204627 | 25 | 259 | 6.4 | 12.9 | 0.00 | 0.00 | 0.00 | 46 | 1025.2 |
| 20260505204204 | 25 | 218 | 8.0 | 20.9 | 0.00 | 0.00 | 0.00 | 44 | 1008.6 |
| 20260505204125 | 25 | 219 | 12.9 | 17.7 | 0.00 | 0.00 | 0.00 | 44 | 1025.2 |
| 20260505203704 | 25 | 257 | 4.8 | 20.9 | 0.00 | 0.00 | 0.00 | 45 | 1008.5 |
| 20260505203621 | 25 | 242 | 3.2 | 17.7 | 0.00 | 0.00 | 0.00 | 45 | 1025.3 |
| 20260505203118 | 26 | 249 | 6.4 | 12.9 | 0.00 | 0.00 | 0.00 | 44 | 1025.0 |
| 20260505202705 | 26 | 252 | 3.2 | 19.3 | 0.00 | 0.00 | 0.00 | 45 | 1008.6 |
| 20260505202609 | 26 | 258 | 6.4 | 16.1 | 0.00 | 0.00 | 0.00 | 45 | 1025.1 |